RH
44 44 40 30 19 26 24 16 17 14 10 11 11 8 18 54 54 48 36 72 67 40 16 14 12 15 16 15 14 14 14 15 16 16 18 20 21 21 21 22 22 24 24
56 35 34 28 19 23 24 14 12 11 10 10 11 5 14 37 58 49 47 72 62 20 14 14 16 16 15 14 15 16 18 21 24 25 24 21 19 18 17 18 18 20 21
56 50 25 22 20 21 23 13 12 11 9 10 11 4 30 49 76 60 76 75 37 18 16 18 17 16 15 17 19 21 23 23 21 18 18 19 19 19 19 18 19 19 20
52 45 30 20 24 19 22 13 12 9 8 8 4 11 48 61 66 88 84 58 24 17 17 18 17 19 22 22 22 21 20 18 20 22 20 19 17 15 15 16 16 16 17
68 35 26 25 31 20 20 14 11 8 8 8 12 41 53 57 87 92 72 33 19 18 19 19 19 22 23 24 22 20 22 22 21 22 22 21 20 20 19 18 16 15 15
41 34 28 31 47 28 20 14 10 17 70 60 55 56 68 87 93 76 54 24 20 21 21 22 24 25 23 21 22 22 21 22 23 23 25 26 25 23 20 19 17 15 15
58 45 69 71 65 63 23 14 13 30 88 81 80 82 89 85 80 74 41 20 21 22 24 26 26 23 23 24 22 21 20 21 21 22 24 26 25 23 23 18 16 15 14
90 67 75 65 70 72 39 13 15 22 86 82 81 89 89 77 73 52 20 20 23 24 28 27 25 30 31 29 25 22 21 20 19 20 22 21 19 20 19 18 20 21 22
97 99 75 72 78 76 41 15 13 13 73 88 82 90 88 74 49 18 23 25 26 28 27 29 35 38 39 36 33 26 20 19 18 17 16 14 13 13 16 28 29 30 32
97 95 91 82 89 82 57 17 12 10 44 80 85 97 76 23 14 21 26 28 31 28 32 40 42 44 43 40 36 32 26 22 20 17 14 13 17 31 28 31 33 30 25
94 94 97 86 90 85 64 20 12 10 20 58 83 83 25 14 21 27 29 32 30 37 43 46 46 45 43 42 38 35 28 22 20 16 13 19 28 31 28 28 25 26 17
100 98 98 95 90 96 61 47 14 12 19 35 49 55 15 24 27 30 32 32 40 42 44 46 46 45 43 40 38 33 26 20 18 17 18 22 26 27 26 20 15 14 13
89 100 100 93 86 100 61 57 20 16 18 27 32 20 24 27 28 30 36 40 43 48 49 48 46 44 42 39 36 31 24 22 22 22 22 27 26 23 18 16 16 15 13
75 88 99 100 100 100 69 56 40 18 16 20 20 25 26 26 31 38 41 46 49 51 50 48 45 42 39 37 34 31 29 28 25 25 27 28 25 21 20 21 19 17 15
73 72 96 98 93 99 78 49 46 26 23 24 26 26 28 30 38 43 48 50 52 51 50 48 45 42 39 35 33 33 33 33 28 28 29 26 25 23 22 21 19 17 15
78 64 91 88 100 100 86 39 54 41 34 28 28 31 35 41 46 49 50 51 51 51 49 47 44 42 41 35 34 35 34 32 30 29 28 26 25 25 26 26 24 22 20
84 71 94 92 100 100 64 34 63 54 42 36 34 37 41 46 48 49 50 50 51 50 49 45 43 42 42 37 36 37 35 33 26 28 29 27 28 30 29 28 26 24 22
84 70 92 84 100 100 53 45 44 60 57 45 41 42 45 47 48 49 49 50 50 49 46 44 44 42 42 42 37 39 38 34 28 29 30 30 33 33 33 32 30 27 24
85 82 56 79 98 90 74 50 45 46 55 55 58 49 48 48 49 49 49 49 48 46 44 46 49 47 43 44 41 39 41 40 31 30 32 35 35 36 38 41 39 34 30
82 86 79 86 90 88 80 65 63 48 45 48 54 52 53 54 52 52 52 51 49 47 46 48 53 52 48 45 46 41 40 44 40 32 34 37 38 44 51 55 55 47 39
98 94 96 94 99 97 88 95 86 69 62 51 50 51 53 55 56 54 55 56 59 54 53 62 60 61 54 48 47 46 44 48 46 36 38 39 40 48 55 59 59 57 58
98 93 100 100 99 98 95 86 83 96 90 78 76 75 83 82 69 76 80 74 73 69 75 80 80 71 62 56 49 56 59 54 48 41 41 42 45 52 56 56 61 63 61
100 98 98 100 100 100 100 96 91 97 100 98 92 90 87 86 91 83 84 83 85 82 88 91 95 97 74 75 81 79 73 70 68 48 46 48 60 66 62 59 63 64 65
100 97 100 100 100 99 98 99 98 99 96 94 98 94 91 89 91 85 81 90 93 92 91 94 99 100 98 96 88 93 89 84 67 61 52 56 71 78 75 72 68 68 66
98 93 94 95 97 96 95 97 96 98 94 97 97 99 98 98 97 87 89 83 78 88 84 81 96 98 100 100 99 99 99 98 94 98 93 94 68 90 80 70 72 70 70
98 98 92 90 93 93 92 99 95 96 98 98 93 98 93 94 80 89 99 95 97 94 95 91 90 100 99 100 100 100 100 99 100 100 99 99 98 83 75 75 62 69 70
Wind_Speed
10 15 18 15 13 11 10 10 10 10 12 13 14 16 20 21 17 15 16 12 9 8 8 7 6 7 6 7 8 8 8 8 9 9 9 9 9 9 9 10 10 9 9
24 13 17 16 14 13 11 11 11 11 12 15 15 16 20 21 18 16 15 13 11 10 10 8 8 7 7 7 8 7 8 8 8 8 8 8 9 9 9 9 9 8 8
23 22 14 16 16 15 12 12 11 11 12 14 16 17 21 22 18 17 16 14 12 11 10 10 9 8 8 7 7 7 7 7 7 8 7 9 9 9 8 8 8 8 8
23 20 18 18 16 15 13 12 12 12 12 15 17 21 21 21 18 18 17 14 13 12 11 11 9 9 8 7 6 6 6 7 7 8 8 9 9 8 8 8 8 8 8
23 20 21 19 17 16 15 14 13 14 17 18 20 21 21 20 19 19 16 15 14 13 12 11 10 8 7 7 6 6 6 6 6 6 8 8 7 7 7 8 9 9 9
26 24 22 20 18 17 17 16 16 20 20 19 20 21 22 22 21 19 16 15 16 15 13 11 10 8 6 6 6 6 5 5 5 6 6 6 6 6 7 7 8 9 9
25 25 22 19 19 18 19 18 19 24 21 22 20 23 24 22 20 18 17 17 17 15 13 11 8 7 6 5 4 4 4 4 4 4 4 4 5 6 7 7 8 9 10
20 23 22 23 21 20 19 21 22 27 25 24 24 25 25 22 20 19 20 19 18 15 13 10 8 7 6 4 3 2 2 2 2 2 2 3 4 6 6 8 10 11 11
29 26 25 25 24 22 21 23 25 29 30 27 27 27 25 23 21 22 22 20 18 15 12 11 9 6 4 2 1 1 1 1 0 0 2 3 6 7 7 10 12 11 11
31 32 25 26 25 23 24 26 27 29 34 32 30 27 24 23 24 24 23 21 17 15 14 11 8 5 4 2 1 1 2 2 2 2 4 5 6 7 9 11 12 12 13
37 32 24 26 26 24 25 28 29 30 35 36 32 27 24 26 27 26 24 21 19 17 14 11 8 6 5 4 3 4 4 3 3 4 3 5 7 8 10 12 13 14 15
32 30 29 21 28 26 27 27 31 31 34 37 34 30 28 29 28 28 24 22 19 16 13 10 9 8 7 6 5 5 5 5 4 4 5 6 7 9 10 12 14 15 15
60 33 24 35 29 32 33 31 33 33 34 36 34 33 34 33 30 27 26 23 19 16 13 11 9 9 8 7 7 7 7 6 6 6 5 6 8 10 11 12 14 15 17
46 53 35 31 23 38 36 35 33 35 34 36 36 36 35 33 30 29 26 23 19 16 14 12 11 10 10 9 9 8 8 8 8 7 6 8 9 9 10 13 13 14 16
31 48 42 21 31 44 41 38 36 36 36 35 37 36 34 32 31 28 26 23 20 17 16 14 13 13 12 11 10 10 10 9 9 9 9 8 10 10 12 13 15 15 15
25 38 47 30 31 36 42 41 38 36 37 38 38 37 37 35 33 30 26 24 21 19 18 16 16 15 15 14 13 12 12 11 11 11 11 11 10 11 13 15 16 18 18
22 22 22 35 29 22 38 41 38 37 37 38 39 38 37 35 33 30 27 25 23 20 19 18 18 18 18 17 16 15 14 13 12 13 12 12 13 12 14 16 17 17 18
20 13 26 25 24 28 34 36 39 39 37 38 38 37 36 34 31 29 27 25 24 22 21 21 20 21 21 21 19 18 16 14 15 14 13 13 14 14 15 14 16 17 18
20 14 27 18 19 30 28 32 33 35 35 36 36 35 34 32 31 29 28 27 25 25 23 23 23 23 24 24 23 22 21 17 17 16 15 15 14 15 15 18 17 19 20
25 14 16 26 25 31 28 27 28 32 34 35 35 34 33 32 31 31 30 30 28 27 27 26 25 26 26 26 27 26 24 21 21 18 17 17 15 15 16 18 19 20 22
26 21 20 29 37 41 35 28 27 29 29 29 31 32 33 33 33 32 32 31 31 31 28 29 29 28 28 29 30 30 28 25 25 21 19 18 17 17 18 21 26 26 25
14 11 21 28 39 42 37 32 32 27 29 31 33 32 29 28 29 28 29 31 31 32 28 29 30 30 31 32 31 30 31 29 26 22 20 19 19 20 22 24 26 29 27
16 19 17 19 40 39 25 33 36 32 29 28 33 35 31 28 32 33 31 34 34 34 31 34 29 30 31 32 30 30 29 29 28 25 21 21 21 23 26 26 29 29 28
8 21 24 23 24 26 36 32 16 31 32 30 32 41 41 43 37 41 42 43 43 40 40 44 38 33 33 33 32 31 29 33 29 26 29 27 25 27 29 31 31 30 29
9 11 10 9 4 4 2 8 25 16 20 41 39 43 45 40 47 50 53 50 52 50 50 50 37 38 35 38 33 34 35 32 32 36 34 38 39 36 30 33 33 34 31
10 10 8 3 6 6 5 7 10 14 21 15 15 14 24 39 17 46 65 48 49 52 53 52 62 31 28 33 32 32 34 37 33 30 36 36 33 29 33 30 30 31 30
Wind_Direction
260 243 243 246 245 223 211 209 208 206 193 192 190 188 180 181 180 177 175 174 166 151 138 130 127 123 123 122 118 113 108 101 95 92 90 84 77 68 62 58 48 45 44
245 256 239 241 238 223 210 206 205 206 198 193 190 189 179 180 176 174 173 172 164 152 145 142 139 136 134 125 117 109 104 98 91 86 81 77 69 61 53 49 47 40 35
241 237 238 232 234 221 211 203 202 200 194 193 190 181 175 176 174 171 171 168 162 154 150 148 146 143 138 128 118 111 106 101 96 88 81 72 65 61 56 47 42 37 28
226 226 227 227 229 220 210 203 198 193 182 179 176 169 173 176 172 172 169 171 165 161 158 157 154 146 137 127 116 114 111 107 104 96 88 76 69 62 54 47 38 33 27
205 208 214 219 223 217 210 204 192 177 164 161 166 167 173 177 176 175 175 173 166 165 165 161 157 150 141 131 125 123 119 114 107 99 81 75 67 55 47 38 31 26 21
212 202 205 212 218 214 212 201 188 171 167 167 168 171 174 175 176 179 182 176 170 169 169 165 161 154 146 138 133 132 129 123 105 94 85 80 64 45 38 32 26 18 12
209 201 198 197 210 210 209 199 189 177 171 172 175 175 172 175 183 189 185 179 174 172 170 169 164 153 144 133 131 129 123 119 110 92 75 61 46 32 24 19 11 7 1
207 203 201 200 207 208 210 200 191 184 176 178 181 178 180 183 184 187 182 180 176 175 174 172 164 153 142 136 125 110 101 103 100 92 43 21 14 9 7 5 4 358 353
189 198 203 205 205 206 210 203 193 188 186 183 186 186 183 185 187 183 180 178 177 177 175 167 161 159 150 149 133 83 60 108 161 355 345 354 354 355 351 351 354 352 349
196 194 204 207 210 209 209 203 199 192 192 192 191 188 186 188 185 181 180 179 180 177 171 169 172 177 192 199 243 295 321 311 311 320 335 345 347 348 346 338 339 344 342
184 193 193 214 216 214 212 207 201 196 195 196 196 195 193 185 183 181 181 181 179 176 176 179 190 201 221 235 257 280 290 291 301 309 320 327 334 334 337 336 336 335 338
225 189 204 194 225 220 213 209 205 200 197 198 199 198 189 184 184 183 184 181 181 180 183 194 207 220 234 246 258 269 282 283 285 295 314 320 325 327 330 330 331 330 332
264 230 185 204 206 218 214 206 206 203 198 196 195 189 187 186 185 184 184 184 184 189 198 208 222 236 246 255 260 267 272 277 286 294 304 310 317 322 326 327 327 329 327
271 263 236 211 193 213 214 204 204 201 197 194 190 188 188 187 186 185 186 188 194 203 214 225 233 238 245 248 253 257 266 276 283 287 290 304 307 314 319 322 323 321 318
292 277 248 259 188 204 212 202 199 199 196 194 191 189 188 187 187 189 194 202 209 217 226 234 242 247 252 256 259 260 265 272 277 280 290 296 308 314 318 318 321 320 322
274 290 236 269 191 202 208 199 196 198 197 193 192 191 190 191 194 199 205 212 219 227 237 244 248 251 251 252 254 259 264 270 276 282 291 299 303 309 314 317 319 320 322
274 289 230 211 213 178 201 198 193 197 200 197 196 196 196 198 203 208 213 220 227 234 242 248 251 252 252 253 255 260 264 269 272 277 288 294 304 307 313 318 318 320 317
261 232 195 223 238 165 197 199 199 196 198 202 201 202 204 207 212 218 223 229 235 241 247 253 255 253 252 252 254 259 263 267 270 275 281 288 296 305 308 312 315 316 312
250 212 245 280 229 176 190 194 199 203 203 203 205 208 210 215 220 225 231 236 241 248 251 254 258 258 256 254 254 258 263 267 269 270 274 282 288 296 305 311 317 317 312
241 251 220 217 221 190 194 196 201 202 206 208 211 215 218 222 226 230 234 239 245 251 254 257 260 260 261 259 257 256 261 265 267 266 268 275 281 292 302 311 314 317 313
238 258 245 227 221 213 188 193 196 204 209 211 214 217 223 226 230 235 238 243 248 251 255 261 258 257 256 257 256 260 259 259 262 262 263 269 276 285 293 303 308 310 309
219 226 208 194 199 186 192 199 205 207 212 215 216 219 221 225 229 234 241 241 245 250 256 260 256 258 258 256 256 257 259 260 260 258 259 263 272 280 289 300 309 309 308
197 170 179 193 191 197 207 204 210 221 227 229 227 228 231 240 246 244 247 255 249 248 250 261 255 263 258 256 254 255 255 257 256 253 249 257 268 282 291 299 302 304 307
216 219 216 204 198 202 216 216 213 229 230 238 241 235 240 248 257 249 247 255 258 253 250 253 263 246 258 249 246 245 246 253 257 256 257 256 267 291 295 294 297 302 301
123 96 66 103 111 244 317 197 226 229 235 247 233 240 243 254 254 251 256 261 264 257 257 262 278 263 254 247 237 239 240 247 248 261 260 271 271 287 292 288 298 299 298
147 130 125 145 218 232 238 257 266 294 264 279 301 268 264 249 306 258 250 264 255 249 252 258 260 260 267 244 239 238 232 245 254 265 279 280 274 280 287 296 300 295 292